sat.trackr.live / text

‹ back to catalog

STARLINK-3450

NORAD 51734 · 2022-016W

PAYLOAD ACTIVE UNKNOWN

§ Identity

Operator
Country
US
Launch date
2022-02-21
Launch site
AFETR
Launch vehicle
Mass (kg)
RCS (m²)

Purposes: comms

External: N2YO · Heavens-Above · Gunter

§ Orbital elements

Epoch: 2026-05-24T19:52:38.232192Z

Period
95.44 min
Inclination
53.2132°
Eccentricity
0.0001180
Mean motion
15.08823704 rev/d
Perigee alt
539.0 km
Apogee alt
540.6 km
Semi-major
6,917.9 km
B*
-6.7467e-5
RAAN
337.3218°
Arg perigee
90.0242°
Mean anomaly
270.0886°
Rev number
23,505

§ Raw data

STARLINK-34501 51734U 22016W   26144.82822028 -.00001361  00000+0 -67467-4 0  99962 51734  53.2132 337.3218 0001180  90.0242 270.0886 15.08823704235056

JSON: /api/v1/satellites/51734 · /tle

For live sub-satellite position, see the globe view (requires WebGL).

§ Visibility from observer

Set your observer location to see the next 7 days of passes ≥ 10°. The values pass through the URL so the page stays shareable.

No JS? Fill the form by hand. The geolocation button needs JavaScript.